Accueil
METAR-TAF:

METAR-TAF

Aéroports :

Anvik, Alaska, États-Unis

latitude: 62-38-54N, longitude: 160-11-23W, altitude: 94 m

Observation

Le bulletin a été fait il y a 22 minutes, à 21:56 UTC
Vent 11 kt de nord/nord-est
Température -28°C
Humidité 62%
Pression 1004 hPa
Visibilité: 16.1 km
Ciel clair

METAR: PANV 282156Z AUTO 03011KT 10SM CLR M28/M33 A2964 RMK AO2 SLP222 T12781333 FZRANO TSNO

Heure: 13:18 (22:18 UTC)


TAF: absent

Observations et prévisions météorologiques de plus de 4000 aéroports (messages METAR et TAF).

Les stations disponibles sont représentées par des disques jaunes et rouges sur la carte.

Passer la souris dessus pour voir le nom de la station.

Cliquer dessus pour voir les observations et prévisions météorologiques.

Pour changer de carte: cliquez sur les boutons verts avec une croix noire pour zoomer, sur le bouton vert avec un tiret pour effectuer un zoom arrière, ou sur les flèches vertes pour les cartes adjacentes.


METAR-TAF: